Flag for Norway Weather past 2 weeks in Kleppestø, Norway

Now
45 °F

Cool.


Feels Like: 43 °F
Forecast: 48 / 54 °F
Wind: 5 mph from North

Location: Bergen / Florida

Current Time: Oct 22, 2014 at 10:29:55 AM

Latest Report: Oct 22, 2014 at 9:00 AM


Visibility: N/A

Pressure: 29.80 "Hg

Humidity: 84%

Dew point: 40 °F

Location of KleppestøLocation

Historic Weather in Kleppestø — Graph

°F

Kleppestø temperature yesterday

Maximum temperature yesterday: 57 °F (at 2:00 PM)
Minimum temperature yesterday: 48 °F (at 12:00 AM)
Average temperature yesterday: 52 °F

Past Weeks' High & Low Weather Summary

 TemperatureHumidityPressure
High59 °F (Oct 7, 3:00 PM)91% (Oct 14, 10:00 AM)29.98 "Hg (Oct 14, 10:00 AM)
Low36 °F (Oct 16, 4:00 AM)30% (Oct 7, 2:00 PM)29.18 "Hg (Oct 21, 2:00 PM)
Average50 °F75%29.64 "Hg
* Reported Oct 7 9:00 AM — Oct 22 9:00 AM, Kleppestø, Weather by CustomWeather, © 2014

Note: Actual official high and low records may vary slightly from our data, if they occured in-between our weather recording intervals... More about our weather records

Advertising

Kleppestø weather history for previous 24 hours

 ConditionsComfort  
Time TempWeatherWind HumidityBarometerVisibility
9:00 AM
Oct 22
45 °FCool.5 mph84%29.80 "HgN/A
8:00 AM45 °FLight rain. Overcast.5 mph87%29.76 "Hg12 mi
7:00 AM46 °FCool.6 mph87%29.72 "HgN/A
6:00 AM46 °FCool.7 mph88%29.67 "HgN/A
5:00 AM47 °FCool.7 mph88%29.62 "HgN/A
4:00 AM48 °FCool.8 mph87%29.57 "HgN/A
3:00 AM51 °FCool.3 mph87%29.47 "HgN/A
2:00 AM51 °FCool.2 mph86%29.44 "HgN/A
1:00 AM51 °FCool.No wind83%29.35 "HgN/A
12:00 AM51 °FCool.5 mph85%29.29 "HgN/A
11:00 PM
Oct 21
50 °FLight rain. Overcast.2 mph85%29.29 "Hg19 mi
10:00 PM51 °FCool.1 mph82%29.26 "HgN/A
9:00 PM52 °FCool.1 mph75%29.23 "HgN/A
8:00 PM52 °FLight rain. Overcast.3 mph73%29.21 "Hg19 mi
7:00 PM54 °FCool.5 mph67%29.21 "HgN/A
6:00 PM55 °FCool.5 mph61%29.18 "HgN/A
5:00 PM54 °FLight rain. Overcast.6 mph63%29.18 "Hg19 mi
4:00 PM55 °FCool.7 mph59%29.18 "HgN/A
3:00 PM56 °FRefreshingly cool.8 mph59%29.18 "HgN/A
2:00 PM57 °FLight rain. Overcast.9 mph54%29.18 "Hg19 mi
1:00 PM55 °FCool.9 mph61%29.21 "HgN/A
12:00 PM55 °FCool.9 mph58%29.23 "HgN/A
11:00 AM53 °FOvercast.9 mph64%29.26 "Hg19 mi
10:00 AM52 °FCool.8 mph68%29.26 "HgN/A
Weather by CustomWeather, © 2014

See weather overviewHow to use our weather pages